Home   Weather   Santa Rosa   Past weeks
Flag for Argentina

Past Weather in Santa Rosa, La Pampa, Argentina — Yesterday and Last 2 Weeks

Now
49 °F

Light rain. Overcast.


Feels Like: 44 °F
Forecast: 56 / 43 °F
Wind: 12 mph from Northeast

Location: Santa Rosa Aerodrome

Current Time: Oct 15, 2019 at 1:35:10 pm

Latest Report: Oct 15, 2019 at 12:00 pm


Visibility: 9 mi

Pressure: 30.44 "Hg

Humidity: 77%

Dew Point: 42 °F

Location of Santa RosaLocation

Past Weather in Santa Rosa — Graph

°F

Santa Rosa Temperature Yesterday

Maximum temperature yesterday: 53 °F (at 3:00 pm)
Minimum temperature yesterday: 45 °F (at 7:00 am)
Average temperature yesterday: 49 °F

High & Low Weather Summary for the Past Weeks

 TemperatureHumidityPressure
High88 °F (Oct 10, 3:00 pm)93% (Oct 15, 8:00 am)30.55 "Hg (Oct 15, 8:00 am)
Low37 °F (Oct 5, 7:00 am)13% (Oct 7, 4:00 pm)29.58 "Hg (Oct 10, 5:00 pm)
Average60 °F41%30.05 "Hg
* Reported Sep 30 11:00 am — Oct 15 11:00 am, Santa Rosa. Weather by CustomWeather, © 2019

Note: Actual official high and low records may vary slightly from our data, if they occured in-between our weather recording intervals... More about our weather records

Advertising

Santa Rosa Weather History for the Previous 24 Hours

Scroll right to see more
 ConditionsComfort  
Time TempWeatherWind HumidityBarometerVisibility
11:00 am
Tue, Oct 15
47 °FLight rain. Overcast.13 mph77%30.45 "Hg9 mi
10:00 am45 °FLight rain. Overcast.10 mph88%30.46 "Hg6 mi
9:00 am43 °FLight rain. Overcast.12 mph89%30.47 "Hg6 mi
8:00 am43 °FLight rain. Overcast.13 mph93%30.46 "Hg6 mi
7:00 am44 °FLight rain. Overcast.13 mph88%30.46 "Hg6 mi
6:00 am45 °FFog.14 mph85%30.44 "Hg6 mi
5:00 am45 °FOvercast.12 mph85%30.42 "Hg6 mi
4:00 am45 °FLight rain. Overcast.10 mph84%30.43 "Hg5 mi
3:00 am46 °FLight rain. Overcast.7 mph90%30.45 "Hg5 mi
2:00 am47 °FLight rain. Overcast.6 mph85%30.47 "Hg5 mi
1:00 am47 °FLight rain. Overcast.8 mph81%30.47 "Hg5 mi
12:00 am48 °FLight rain. Overcast.6 mph79%30.49 "Hg5 mi
11:00 pm
Mon, Oct 14
48 °FLight rain. Overcast.3 mph79%30.51 "Hg5 mi
10:00 pm51 °FLight rain. Overcast.9 mph55%30.51 "Hg5 mi
9:00 pm51 °FOvercast.6 mph57%30.49 "Hg19 mi
8:00 pm52 °FOvercast.8 mph45%30.47 "Hg19 mi
7:00 pm52 °FOvercast.10 mph44%30.46 "Hg19 mi
6:00 pm52 °FOvercast.9 mph42%30.47 "Hg19 mi
5:00 pm53 °FOvercast.12 mph40%30.46 "Hg19 mi
4:00 pm53 °FOvercast.12 mph38%30.47 "Hg19 mi
3:00 pm53 °FOvercast.9 mph37%30.48 "Hg19 mi
2:00 pm52 °FOvercast.7 mph41%30.50 "Hg19 mi
1:00 pm51 °FOvercast.12 mph43%30.50 "Hg19 mi
Weather by CustomWeather, © 2019

See weather overview